TimeHST,TemperatureF,Dew PointF,Humidity,Sea Level PressureIn,VisibilityMPH,Wind Direction,Wind SpeedMPH,Gust SpeedMPH,PrecipitationIn,Events,Conditions,WindDirDegrees,DateUTC
12:54 AM,73.0,64.9,76,30.08,10.0,NNE,13.8,-,0.00,,Mostly Cloudy,30,2011-10-14 10:54:00
1:54 AM,73.9,64.0,71,30.07,10.0,ENE,15.0,24.2,N/A,,Mostly Cloudy,60,2011-10-14 11:54:00
2:54 AM,71.1,64.0,78,30.06,10.0,ENE,5.8,-,N/A,,Partly Cloudy,60,2011-10-14 12:54:00
3:54 AM,71.1,63.0,75,30.06,10.0,NE,5.8,-,N/A,,Partly Cloudy,50,2011-10-14 13:54:00
4:54 AM,73.0,63.0,71,30.05,10.0,North,8.1,-,N/A,,Scattered Clouds,10,2011-10-14 14:54:00
5:54 AM,73.0,64.0,73,30.05,10.0,NNE,13.8,-,N/A,,Clear,30,2011-10-14 15:54:00
6:54 AM,73.0,63.0,71,30.06,10.0,NE,9.2,-,N/A,,Clear,50,2011-10-14 16:54:00
7:54 AM,73.9,64.9,73,30.09,10.0,NE,11.5,-,N/A,,Partly Cloudy,50,2011-10-14 17:54:00
8:54 AM,80.1,66.0,62,30.09,10.0,NE,13.8,-,N/A,,Partly Cloudy,50,2011-10-14 18:54:00
9:54 AM,82.0,63.0,52,30.09,10.0,ENE,18.4,23.0,N/A,,Partly Cloudy,60,2011-10-14 19:54:00
10:54 AM,84.0,63.0,49,30.09,10.0,ENE,18.4,28.8,N/A,,Partly Cloudy,60,2011-10-14 20:54:00
11:54 AM,84.0,63.0,49,30.06,10.0,NE,17.3,29.9,N/A,,Partly Cloudy,50,2011-10-14 21:54:00
12:54 PM,82.9,64.9,54,30.04,10.0,NE,18.4,28.8,N/A,,Partly Cloudy,50,2011-10-14 22:54:00
1:54 PM,84.0,64.0,51,30.01,10.0,NE,21.9,29.9,N/A,,Partly Cloudy,40,2011-10-14 23:54:00
2:54 PM,82.9,61.0,47,30.01,10.0,ENE,18.4,26.5,N/A,,Partly Cloudy,60,2011-10-15 00:54:00
3:54 PM,82.0,63.0,52,30.01,10.0,NE,19.6,27.6,N/A,,Partly Cloudy,50,2011-10-15 01:54:00
4:54 PM,80.1,62.1,54,30.02,10.0,NE,19.6,24.2,N/A,,Partly Cloudy,40,2011-10-15 02:54:00
5:54 PM,77.0,62.1,60,30.03,10.0,NE,20.7,-,N/A,,Partly Cloudy,40,2011-10-15 03:54:00
6:54 PM,75.9,61.0,60,30.04,10.0,NE,15.0,-,N/A,,Partly Cloudy,40,2011-10-15 04:54:00
7:54 PM,75.0,63.0,66,30.07,10.0,NE,12.7,-,N/A,,Partly Cloudy,40,2011-10-15 05:54:00
8:54 PM,73.0,66.0,79,30.08,10.0,NE,12.7,-,N/A,,Partly Cloudy,40,2011-10-15 06:54:00
9:05 PM,71.6,66.2,83,30.06,5.0,ENE,11.5,-,0.01,Rain,Rain,60,2011-10-15 07:05:00
9:15 PM,71.6,66.2,83,30.07,5.0,NE,12.7,-,0.02,Rain,Light Rain,50,2011-10-15 07:15:00
9:54 PM,71.1,68.0,90,30.09,7.0,NE,16.1,21.9,0.04,Rain,Light Rain,50,2011-10-15 07:54:00
10:54 PM,71.1,68.0,90,30.09,9.0,NE,10.4,19.6,0.02,Rain,Light Rain,50,2011-10-15 08:54:00
11:54 PM,71.1,66.9,87,30.09,6.0,ENE,12.7,-,0.01,Rain,Light Rain,60,2011-10-15 09:54:00